Retour au catalogue

SKYSAT C4

ActifScienceSSO
NORAD 41771·PAYLOAD·🇺🇸 United States

Lancé Sep 16, 2016 depuis Guiana Space Centre

Loading…

Prochains Passages (prochaines 24 heures)

TLE

FraisSource: CelesTrak SupGP

Époque: Sep 14, 2026, 20:49 UTC

1 41771C 16058B   26257.86789352  .00017364  00000+0  29825-3 0  2576
2 41771  96.9160 276.0347 0000198 104.1333 184.5614 15.51166274    13

Suivez SKYSAT C4 en temps réel avec AllMySat

Download on the App Store